TAM4873 SBGL-SBSP

Flight info

Callsign TAM4873
Flight time 0h 45m
Altitude 30000
Route NAXOP UZ45 IBDAL
Aircraft A319/M-SDE3FGHIRWY/LB1

Departure

Time 2026-05-07 19:09
Airport Rio Galeão – Tom Jobim International Airport (SBGL)

Arrival

Time 2026-05-07 19:54
Airport Congonhas–Deputado Freitas Nobre Airport (SBSP)
Time Latitude Longitude Altitude Speed Heading
2026-05-07 18:27 -22.81592 -43.24689 22 ft 0 kts 26°
2026-05-07 18:53 -22.81608 -43.24697 23 ft 4 kts 24°
2026-05-07 18:53 -22.81632 -43.24706 22 ft 4 kts 352°
2026-05-07 18:53 -22.81652 -43.24695 23 ft 4 kts 315°
2026-05-07 18:53 -22.81667 -43.24675 22 ft 1 kts 304°
2026-05-07 18:59 -22.81664 -43.24680 24 ft 1 kts 304°
2026-05-07 18:59 -22.81657 -43.24691 22 ft 2 kts 304°
2026-05-07 18:59 -22.81646 -43.24708 22 ft 3 kts 304°
2026-05-07 18:59 -22.81631 -43.24730 22 ft 4 kts 307°
2026-05-07 19:00 -22.81613 -43.24755 23 ft 5 kts 307°
2026-05-07 19:00 -22.81594 -43.24787 23 ft 5 kts 299°
2026-05-07 19:00 -22.81574 -43.24823 22 ft 6 kts 304°
2026-05-07 19:00 -22.81542 -43.24858 22 ft 7 kts 319°
2026-05-07 19:01 -22.81509 -43.24904 22 ft 8 kts 302°
2026-05-07 19:01 -22.81478 -43.24961 30 ft 9 kts 300°
2026-05-07 19:01 -22.81444 -43.25024 22 ft 10 kts 300°
2026-05-07 19:01 -22.81419 -43.25096 22 ft 10 kts 255°
2026-05-07 19:02 -22.81474 -43.25150 21 ft 11 kts 214°
2026-05-07 19:02 -22.81542 -43.25203 23 ft 13 kts 218°
2026-05-07 19:02 -22.81539 -43.25282 23 ft 12 kts 301°
2026-05-07 19:02 -22.81492 -43.25362 22 ft 13 kts 306°
2026-05-07 19:03 -22.81437 -43.25447 21 ft 14 kts 305°
2026-05-07 19:03 -22.81378 -43.25539 21 ft 15 kts 305°
2026-05-07 19:03 -22.81312 -43.25634 21 ft 16 kts 304°
2026-05-07 19:03 -22.81249 -43.25735 23 ft 17 kts 306°
2026-05-07 19:04 -22.81176 -43.25841 22 ft 18 kts 306°
2026-05-07 19:04 -22.81124 -43.25915 22 ft 9 kts 317°
2026-05-07 19:04 -22.81071 -43.25916 23 ft 8 kts 28°
2026-05-07 19:04 -22.81021 -43.25881 23 ft 9 kts 33°
2026-05-07 19:05 -22.80966 -43.25839 25 ft 10 kts 36°
2026-05-07 19:05 -22.80905 -43.25791 23 ft 12 kts 35°
2026-05-07 19:05 -22.80837 -43.25739 24 ft 12 kts 36°
2026-05-07 19:05 -22.80778 -43.25691 27 ft 10 kts 36°
2026-05-07 19:06 -22.80712 -43.25640 25 ft 13 kts 32°
2026-05-07 19:06 -22.80555 -43.25530 30 ft 10 kts
2026-05-07 19:06 -22.80490 -43.25559 31 ft 11 kts 326°
2026-05-07 19:07 -22.80424 -43.25608 29 ft 13 kts 334°
2026-05-07 19:07 -22.80334 -43.25583 27 ft 15 kts 36°
2026-05-07 19:07 -22.80242 -43.25507 26 ft 17 kts 38°
2026-05-07 19:07 -22.80163 -43.25410 25 ft 18 kts 70°
2026-05-07 19:08 -22.80118 -43.25240 27 ft 45 kts 74°
2026-05-07 19:08 -22.79967 -43.24668 32 ft 110 kts 75°
2026-05-07 19:08 -22.79713 -43.23688 29 ft 161 kts 74°
2026-05-07 19:08 -22.79408 -43.22493 609 ft 154 kts 76°
2026-05-07 19:09 -22.79139 -43.21339 1091 ft 162 kts 76°
2026-05-07 19:09 -22.78868 -43.20117 1550 ft 175 kts 76°
2026-05-07 19:09 -22.78580 -43.18751 1812 ft 198 kts 77°
2026-05-07 19:09 -22.78257 -43.17210 2138 ft 221 kts 76°
2026-05-07 19:10 -22.77899 -43.15511 2688 ft 236 kts 76°
2026-05-07 19:10 -22.77534 -43.13783 3486 ft 241 kts 75°
2026-05-07 19:10 -22.77155 -43.11994 4334 ft 245 kts 75°
2026-05-07 19:10 -22.76768 -43.10182 5202 ft 248 kts 74°
2026-05-07 19:11 -22.76375 -43.08348 6051 ft 252 kts 74°
2026-05-07 19:11 -22.75976 -43.06491 6885 ft 255 kts 74°
2026-05-07 19:11 -22.75861 -43.04554 7676 ft 265 kts 95°
2026-05-07 19:11 -22.76495 -43.02654 8498 ft 274 kts 120°
2026-05-07 19:12 -22.77830 -43.01158 9317 ft 282 kts 145°
2026-05-07 19:12 -22.79529 -43.00062 10114 ft 286 kts 149°
2026-05-07 19:12 -22.81250 -42.98975 10878 ft 287 kts 149°
2026-05-07 19:12 -22.83036 -42.97986 11627 ft 291 kts 161°
2026-05-07 19:13 -22.85032 -42.97669 12373 ft 293 kts 183°
2026-05-07 19:13 -22.87056 -42.98142 12796 ft 309 kts 205°
2026-05-07 19:13 -22.88914 -42.99471 13003 ft 331 kts 220°
2026-05-07 19:13 -22.90760 -43.01090 13235 ft 351 kts 220°
2026-05-07 19:14 -22.92687 -43.02775 13794 ft 358 kts 219°
2026-05-07 19:14 -22.94648 -43.04480 14372 ft 363 kts 219°
2026-05-07 19:14 -22.96627 -43.06194 14969 ft 366 kts 219°
2026-05-07 19:14 -22.98629 -43.07924 15576 ft 369 kts 219°
2026-05-07 19:15 -23.00641 -43.09661 16207 ft 371 kts 218°
2026-05-07 19:15 -23.02662 -43.11415 16839 ft 374 kts 218°
2026-05-07 19:15 -23.04699 -43.13187 17471 ft 376 kts 218°
2026-05-07 19:15 -23.06745 -43.14972 18092 ft 378 kts 218°
2026-05-07 19:16 -23.08801 -43.16773 18655 ft 380 kts 218°
2026-05-07 19:16 -23.10865 -43.18583 19238 ft 381 kts 218°
2026-05-07 19:16 -23.12928 -43.20392 19828 ft 382 kts 218°
2026-05-07 19:16 -23.14999 -43.22208 20427 ft 383 kts 219°
2026-05-07 19:17 -23.17074 -43.24026 21017 ft 384 kts 218°
2026-05-07 19:17 -23.19153 -43.25846 21591 ft 385 kts 219°
2026-05-07 19:17 -23.21247 -43.27680 22147 ft 387 kts 219°
2026-05-07 19:17 -23.23350 -43.29524 22698 ft 389 kts 219°
2026-05-07 19:18 -23.25467 -43.31382 23259 ft 391 kts 219°
2026-05-07 19:18 -23.27589 -43.33247 23741 ft 394 kts 219°
2026-05-07 19:18 -23.29721 -43.35126 24181 ft 396 kts 219°
2026-05-07 19:18 -23.31718 -43.37187 24614 ft 397 kts 229°
2026-05-07 19:19 -23.33319 -43.39647 25042 ft 400 kts 240°
2026-05-07 19:19 -23.34455 -43.42404 25480 ft 402 kts 250°
2026-05-07 19:19 -23.35186 -43.45354 25913 ft 404 kts 254°
2026-05-07 19:19 -23.35878 -43.48325 26342 ft 405 kts 254°
2026-05-07 19:20 -23.36575 -43.51305 26759 ft 407 kts 254°
2026-05-07 19:20 -23.37276 -43.54289 27172 ft 408 kts 253°
2026-05-07 19:20 -23.37981 -43.57289 27587 ft 410 kts 253°
2026-05-07 19:20 -23.38690 -43.60305 28001 ft 412 kts 253°
2026-05-07 19:21 -23.39392 -43.63293 28406 ft 413 kts 253°
2026-05-07 19:21 -23.40102 -43.66330 28805 ft 415 kts 253°
2026-05-07 19:21 -23.40811 -43.69376 29202 ft 416 kts 253°
2026-05-07 19:21 -23.41527 -43.72441 29597 ft 418 kts 253°
2026-05-07 19:22 -23.42242 -43.75515 29898 ft 420 kts 253°
2026-05-07 19:22 -23.42947 -43.78565 29952 ft 409 kts 253°
2026-05-07 19:22 -23.43625 -43.81513 29953 ft 393 kts 253°
2026-05-07 19:22 -23.44282 -43.84371 29954 ft 387 kts 253°
2026-05-07 19:23 -23.45369 -43.89073 29948 ft 384 kts 253°
2026-05-07 19:23 -23.46681 -43.94712 29946 ft 384 kts 253°
2026-05-07 19:24 -23.47991 -44.00353 29948 ft 384 kts 253°
2026-05-07 19:24 -23.49304 -44.05995 29948 ft 384 kts 253°
2026-05-07 19:25 -23.50599 -44.11636 29944 ft 384 kts 254°
2026-05-07 19:25 -23.51891 -44.17274 29937 ft 384 kts 254°
2026-05-07 19:26 -23.53187 -44.22922 29933 ft 384 kts 254°
2026-05-07 19:26 -23.54476 -44.28569 29929 ft 384 kts 254°
2026-05-07 19:27 -23.55775 -44.34223 29934 ft 385 kts 254°
2026-05-07 19:27 -23.57075 -44.39889 29928 ft 385 kts 254°
2026-05-07 19:28 -23.58370 -44.45563 29928 ft 386 kts 255°
2026-05-07 19:28 -23.59657 -44.51243 29926 ft 386 kts 255°
2026-05-07 19:29 -23.60939 -44.56899 29927 ft 387 kts 255°
2026-05-07 19:29 -23.62235 -44.62591 29925 ft 387 kts 255°
2026-05-07 19:30 -23.63528 -44.68289 29927 ft 387 kts 255°
2026-05-07 19:30 -23.64811 -44.73988 29673 ft 386 kts 255°
2026-05-07 19:31 -23.65447 -44.76818 29230 ft 382 kts 255°
2026-05-07 19:31 -23.66075 -44.79615 28795 ft 378 kts 255°
2026-05-07 19:31 -23.66696 -44.82381 28389 ft 374 kts 255°
2026-05-07 19:31 -23.67316 -44.85123 27980 ft 371 kts 256°
2026-05-07 19:32 -23.67931 -44.87836 27580 ft 368 kts 256°
2026-05-07 19:32 -23.68540 -44.90535 27181 ft 364 kts 256°
2026-05-07 19:32 -23.69138 -44.93203 26784 ft 361 kts 256°
2026-05-07 19:32 -23.69731 -44.95857 26389 ft 358 kts 256°
2026-05-07 19:33 -23.70320 -44.98487 25994 ft 355 kts 256°
2026-05-07 19:33 -23.70905 -45.01094 25592 ft 353 kts 256°
2026-05-07 19:33 -23.71486 -45.03681 25183 ft 350 kts 256°
2026-05-07 19:33 -23.72064 -45.06255 24776 ft 348 kts 256°
2026-05-07 19:34 -23.72635 -45.08813 24357 ft 346 kts 257°
2026-05-07 19:34 -23.73199 -45.11351 23940 ft 344 kts 257°
2026-05-07 19:34 -23.73762 -45.13883 23506 ft 343 kts 257°
2026-05-07 19:34 -23.74324 -45.16408 23024 ft 341 kts 257°
2026-05-07 19:35 -23.74882 -45.18916 22603 ft 338 kts 257°
2026-05-07 19:35 -23.75434 -45.21405 22192 ft 336 kts 257°
2026-05-07 19:35 -23.75982 -45.23875 21772 ft 334 kts 257°
2026-05-07 19:35 -23.76529 -45.26336 21349 ft 333 kts 257°
2026-05-07 19:36 -23.77072 -45.28785 20951 ft 331 kts 257°
2026-05-07 19:36 -23.77613 -45.31224 20551 ft 330 kts 257°
2026-05-07 19:36 -23.78149 -45.33660 20143 ft 330 kts 257°
2026-05-07 19:36 -23.78682 -45.36098 19746 ft 330 kts 258°
2026-05-07 19:37 -23.78952 -45.38532 19650 ft 318 kts 267°
2026-05-07 19:37 -23.79107 -45.40918 19584 ft 319 kts 267°
2026-05-07 19:37 -23.79269 -45.43335 19520 ft 319 kts 267°
2026-05-07 19:37 -23.79429 -45.45750 19452 ft 319 kts 267°
2026-05-07 19:38 -23.79585 -45.48176 19386 ft 320 kts 267°
2026-05-07 19:38 -23.79739 -45.50603 19207 ft 321 kts 267°
2026-05-07 19:38 -23.79895 -45.53085 18522 ft 333 kts 268°
2026-05-07 19:38 -23.80058 -45.55643 18268 ft 341 kts 268°
2026-05-07 19:39 -23.80221 -45.58238 17894 ft 343 kts 268°
2026-05-07 19:39 -23.80383 -45.60833 17587 ft 343 kts 267°
2026-05-07 19:39 -23.80547 -45.63430 17282 ft 342 kts 268°
2026-05-07 19:39 -23.80709 -45.66014 16983 ft 341 kts 268°
2026-05-07 19:40 -23.80870 -45.68589 16685 ft 340 kts 268°
2026-05-07 19:40 -23.81028 -45.71161 16388 ft 338 kts 268°
2026-05-07 19:40 -23.81186 -45.73720 16095 ft 337 kts 268°
2026-05-07 19:40 -23.81341 -45.76273 15806 ft 336 kts 268°
2026-05-07 19:41 -23.81495 -45.78815 15520 ft 335 kts 268°
2026-05-07 19:41 -23.81649 -45.81353 15231 ft 334 kts 268°
2026-05-07 19:41 -23.81803 -45.83883 14951 ft 333 kts 268°
2026-05-07 19:41 -23.81956 -45.86400 14670 ft 332 kts 268°
2026-05-07 19:42 -23.82107 -45.88907 14395 ft 331 kts 268°
2026-05-07 19:42 -23.82257 -45.91414 14124 ft 330 kts 268°
2026-05-07 19:42 -23.82406 -45.93912 13847 ft 329 kts 268°
2026-05-07 19:42 -23.82556 -45.96399 13550 ft 328 kts 268°
2026-05-07 19:43 -23.82704 -45.98873 13239 ft 326 kts 268°
2026-05-07 19:43 -23.82851 -46.01329 12935 ft 323 kts 268°
2026-05-07 19:43 -23.82997 -46.03769 12630 ft 321 kts 269°
2026-05-07 19:43 -23.83144 -46.06192 12327 ft 318 kts 269°
2026-05-07 19:44 -23.83288 -46.08599 12028 ft 316 kts 269°
2026-05-07 19:44 -23.83430 -46.10985 11736 ft 313 kts 269°
2026-05-07 19:44 -23.83570 -46.13350 11440 ft 311 kts 269°
2026-05-07 19:44 -23.83709 -46.15695 11150 ft 308 kts 269°
2026-05-07 19:45 -23.83842 -46.17958 10864 ft 305 kts 270°
2026-05-07 19:45 -23.83976 -46.20253 10583 ft 301 kts 270°
2026-05-07 19:45 -23.84110 -46.22512 10309 ft 297 kts 270°
2026-05-07 19:45 -23.84242 -46.24751 10022 ft 293 kts 270°
2026-05-07 19:46 -23.84372 -46.26956 9744 ft 289 kts 270°
2026-05-07 19:46 -23.84501 -46.29145 9398 ft 288 kts 270°
2026-05-07 19:46 -23.84626 -46.31320 8847 ft 288 kts 270°
2026-05-07 19:46 -23.84750 -46.33500 8403 ft 284 kts 270°
2026-05-07 19:47 -23.84874 -46.35662 7800 ft 288 kts 269°
2026-05-07 19:47 -23.84996 -46.37834 7292 ft 285 kts 270°
2026-05-07 19:47 -23.85116 -46.39980 6868 ft 281 kts 270°
2026-05-07 19:47 -23.85186 -46.41223 6634 ft 278 kts 269°
2026-05-07 19:48 -23.85384 -46.43284 6217 ft 276 kts 271°
2026-05-07 19:48 -23.85086 -46.45330 5854 ft 271 kts 294°
2026-05-07 19:48 -23.84185 -46.47086 5844 ft 264 kts 309°
2026-05-07 19:48 -23.83065 -46.48677 5851 ft 265 kts 309°
2026-05-07 19:49 -23.81962 -46.50282 5857 ft 264 kts 309°
2026-05-07 19:49 -23.80865 -46.51890 5961 ft 262 kts 309°
2026-05-07 19:49 -23.79816 -46.53429 5967 ft 243 kts 311°
2026-05-07 19:49 -23.78613 -46.54607 5924 ft 226 kts 329°
2026-05-07 19:50 -23.77303 -46.55512 5717 ft 220 kts 330°
2026-05-07 19:50 -23.76041 -46.56381 5450 ft 211 kts 329°
2026-05-07 19:50 -23.74846 -46.57209 5220 ft 196 kts 329°
2026-05-07 19:50 -23.73732 -46.57982 4973 ft 181 kts 330°
2026-05-07 19:51 -23.72714 -46.58688 4764 ft 164 kts 330°
2026-05-07 19:51 -23.71829 -46.59302 4562 ft 143 kts 330°
2026-05-07 19:51 -23.71017 -46.59865 4385 ft 135 kts 330°
2026-05-07 19:51 -23.70239 -46.60403 4220 ft 131 kts 328°
2026-05-07 19:52 -23.69470 -46.60936 4050 ft 130 kts 328°
2026-05-07 19:52 -23.68710 -46.61462 3889 ft 130 kts 328°
2026-05-07 19:52 -23.67951 -46.61988 3725 ft 129 kts 327°
2026-05-07 19:52 -23.67194 -46.62512 3559 ft 129 kts 328°
2026-05-07 19:53 -23.66449 -46.63028 3391 ft 129 kts 327°
2026-05-07 19:53 -23.65747 -46.63514 3226 ft 129 kts 327°
2026-05-07 19:53 -23.65080 -46.63977 3075 ft 129 kts 326°
2026-05-07 19:53 -23.64312 -46.64509 2899 ft 129 kts 326°
2026-05-07 19:54 -23.63549 -46.65034 2671 ft 131 kts 327°
2026-05-07 19:54 -23.62905 -46.65477 2608 ft 91 kts 326°
2026-05-07 19:54 -23.62626 -46.65676 2605 ft 4 kts 329°
2026-05-07 19:54 -23.62556 -46.65722 2605 ft 21 kts 330°
2026-05-07 19:55 -23.62442 -46.65799 2603 ft 22 kts 327°
2026-05-07 19:55 -23.62307 -46.65895 2600 ft 26 kts 326°
2026-05-07 19:55 -23.62202 -46.65973 2599 ft 13 kts 308°
2026-05-07 19:55 -23.62233 -46.66045 2600 ft 5 kts 198°
2026-05-07 19:56 -23.62234 -46.66045 2600 ft 0 kts 193°
2026-05-07 19:56 -23.62238 -46.66045 2600 ft 3 kts 187°
2026-05-07 19:56 -23.62283 -46.66020 2600 ft 9 kts 146°
2026-05-07 19:56 -23.62334 -46.65985 2600 ft 9 kts 152°
2026-05-07 19:57 -23.62387 -46.65951 2601 ft 9 kts 145°
2026-05-07 19:57 -23.62437 -46.65914 2601 ft 9 kts 146°
2026-05-07 19:57 -23.62486 -46.65879 2601 ft 8 kts 147°
2026-05-07 19:57 -23.62534 -46.65845 2602 ft 8 kts 147°
2026-05-07 19:58 -23.62570 -46.65820 2602 ft 3 kts 147°
2026-05-07 19:58 -23.62591 -46.65824 2601 ft 3 kts 224°
2026-05-07 19:58 -23.62608 -46.65854 2601 ft 6 kts 238°
2026-05-07 19:58 -23.62618 -46.65870 2601 ft 1 kts 237°
2026-05-07 19:59 -23.62622 -46.65877 2601 ft 1 kts 237°
2026-05-07 19:59 -23.62624 -46.65880 2601 ft 1 kts 237°
2026-05-07 19:59 -23.62625 -46.65882 2601 ft 0 kts 237°
2026-05-07 20:00 -23.62626 -46.65883 2601 ft 0 kts 237°
2026-05-07 20:00 -23.62627 -46.65885 2601 ft 0 kts 237°
2026-05-07 20:00 -23.62629 -46.65889 2601 ft 0 kts 237°